This is the latest recevied weather packets stored in our database for station/object KF7SOJ. If no packets are shown the sender has not sent any weather packets the latest 10 day(s).
| Time | Temp. | Humidity | Pressure | Rain* | Wind** | Luminosity | Snow |
|---|---|---|---|---|---|---|---|
| 1777946168 | 11.67° C | 41% | 930 hPa | 0 mm | - | 8 W/m² | - |
| 1777945864 | 11.67° C | 42% | 929.9 hPa | 0 mm | - | 13 W/m² | - |
| 1777945561 | 11.67° C | 42% | 929.8 hPa | 0 mm | - | 19 W/m² | - |
| 1777945258 | 11.67° C | 41% | 929.8 hPa | 0 mm | - | 24 W/m² | - |
| 1777944955 | 11.67° C | 41% | 929.7 hPa | 0 mm | - | 28 W/m² | - |
| 1777944653 | 12.22° C | 41% | 929.6 hPa | 0 mm | - | 28 W/m² | - |
| 1777944350 | 12.22° C | 41% | 929.6 hPa | 0 mm | - | 42 W/m² | - |
| 1777944047 | 12.22° C | 40% | 929.7 hPa | 0 mm | - | 47 W/m² | - |
| 1777943743 | 12.22° C | 39% | 929.8 hPa | 0 mm | - | 51 W/m² | - |
| 1777943440 | 12.22° C | 39% | 929.6 hPa | 0 mm | - | 49 W/m² | - |
| 1777943135 | 12.22° C | 39% | 929.7 hPa | 0 mm | - | 51 W/m² | - |
| 1777942832 | 12.78° C | 37% | 929.5 hPa | 0 mm | - | 64 W/m² | - |
| 1777942529 | 12.78° C | 37% | 929.6 hPa | 0 mm | - | 71 W/m² | - |
| 1777942226 | 12.78° C | 38% | 929.6 hPa | 0 mm | - | 73 W/m² | - |
| 1777941923 | 12.78° C | 38% | 929.6 hPa | 0 mm | - | 88 W/m² | - |
| 1777941620 | 12.78° C | 37% | 929.7 hPa | 0 mm | - | 100 W/m² | - |
| 1777941317 | 13.33° C | 37% | 929.6 hPa | 0 mm | - | 116 W/m² | - |
| 1777941014 | 13.33° C | 36% | 929.6 hPa | 0 mm | - | 144 W/m² | - |
| 1777940709 | 13.33° C | 37% | 929.6 hPa | 0 mm | - | 238 W/m² | - |
| 1777940408 | 12.78° C | 37% | 929.6 hPa | 0 mm | - | 194 W/m² | - |
| 1777940105 | 12.78° C | 37% | 929.8 hPa | 0 mm | - | 184 W/m² | - |
| 1777939802 | 12.78° C | 38% | 929.7 hPa | 0 mm | - | 162 W/m² | - |
| 1777939500 | 12.78° C | 38% | 929.7 hPa | 0 mm | - | 151 W/m² | - |
| 1777939197 | 12.78° C | 37% | 929.7 hPa | 0 mm | - | 135 W/m² | - |
| 1777938894 | 12.78° C | 38% | 929.6 hPa | 0 mm | - | 131 W/m² | - |
* Rain latest hour (hover to see other rain measurements)
** Current wind speed in m/s (hover to see current wind gust speed)